Regional Weather Roundup
Issued by NWS Albany, NY

Home | Current Version | Previous Version | Text Only | Print | Product List | Glossary On
Versions: 1 2 3 4 5 6 7 8 9 10 11 12 13 14 15 16 17 18 19 20 21 22 23 24 25 26 27
000
ASUS41 KALY 240610
RWRALY

NEW YORK STATE HOURLY WEATHER ROUNDUP
NATIONAL WEATHER SERVICE ALBANY NY
200 AM EDT THU AUG 24 2017

NOTE: "FAIR" INDICATES FEW OR NO CLOUDS BELOW 12,000 FEET WITH NO
SIGNIFICANT WEATHER AND/OR NO OBSTRUCTIONS TO VISIBILITY.

NYZ032-033-038>043-046>054-057>066-NYZ062>081-082-084-240700-
EAST


CITY           SKY/WX    TMP DP  RH WIND       PRES   REMARKS
ALBANY         MOCLDY    62  54  74 W6        29.88S
GLENS FALLS    CLOUDY    60  55  83 CALM      29.87R
POUGHKEEPSIE   MOCLDY    58  55  90 CALM      29.88S
NEWBURGH       CLEAR     59  57  94 CALM      29.90S
MONTGOMERY     MOCLDY    58  56  93 CALM      29.90R
WHITE PLAINS   CLEAR     62  55  77 NW5       29.88F
ISLIP          CLEAR     63  61  93 N5        29.87F
NEW YORK CITY  CLEAR     74  55  51 NW5       29.87S
CENTRAL PARK   CLEAR     70  54  56 W3        29.90F
$$

NYZ005>009-017-018-044>046-055-056-240700-
CENTRAL


CITY           SKY/WX    TMP DP  RH WIND       PRES   REMARKS
FULTON         CLEAR     57  54  89 NW3       29.91S
SYRACUSE       MOCLDY    60  58  92 W7        29.91R
ROME           CLOUDY    57  56  96 CALM      29.91R
ELMIRA         PTCLDY    57  54  89 SW5       29.95R
BINGHAMTON     CLOUDY    57  53  86 W3        29.94S
MONTICELLO     CLEAR     54  52  93 W3        29.94S
$$

NYZ026>034-041>043-087-240700-
NORTH


CITY           SKY/WX    TMP DP  RH WIND       PRES   REMARKS
WATERTOWN      CLEAR     55  53  93 CALM      29.88S
FORT DRUM      NOT AVBL
OGDENSBURG     FAIR      55  54  97 CALM      29.86R
MASSENA        CLEAR     56  55  97 W3        29.85S
SARANAC LAKE   CLEAR     53  53 100 SW6       29.86S
PLATTSBURGH    PTCLDY    57  53  86 S3        29.82S
$$

NYZ001>004-010>016-019>021-085-240700-
WEST


CITY           SKY/WX    TMP DP  RH WIND       PRES   REMARKS
NIAGARA FALLS  CLEAR     56  49  77 W7        29.96S
BUFFALO        CLEAR     58  51  78 W7        29.96S
DUNKIRK        MOCLDY    61  53  75 VRB3      29.98R
JAMESTOWN      MOCLDY    55  51  86 CALM      30.00S
WELLSVILLE     CLEAR     54  49  83 CALM      30.00S
ROCHESTER      CLEAR     56  53  90 W6        29.95R
PENN YAN       CLEAR     60  52  74 W6        29.96R
$$

             KEY
       WCI = WIND CHILL INDEX
       VSB = VISIBILITY
       HX  = HEAT INDEX
$$




USA.gov is the U.S. government's official web portal to all federal, state and local government web resources and services.